owner,sensor,date,latitude,longitude,vertical_datum,sea_water_temperature,qcFlag 
COMPS,ioos:station:USF.COMPS:ANC:1,2010-04-01T00:00:00Z,28.1930,-82.7890,-1.0,21.14,2 
COMPS,ioos:station:USF.COMPS:ANC:1,2010-04-01T00:06:00Z,28.1930,-82.7890,-1.0,21.15,2 
COMPS,ioos:station:USF.COMPS:ANC:1,2010-04-01T00:12:00Z,28.1930,-82.7890,-1.0,21.14,2 
COMPS,ioos:station:USF.COMPS:ANC:1,2010-04-01T00:18:00Z,28.1930,-82.7890,-1.0,21.08,2 
COMPS,ioos:station:USF.COMPS:ANC:1,2010-04-01T00:24:00Z,28.1930,-82.7890,-1.0,20.95,2 
COMPS,ioos:station:USF.COMPS:ANC:1,2010-04-01T00:30:00Z,28.1930,-82.7890,-1.0,20.74,2 
COMPS,ioos:station:USF.COMPS:ANC:1,2010-04-01T00:36:00Z,28.1930,-82.7890,-1.0,20.53,2 
COMPS,ioos:station:USF.COMPS:ANC:1,2010-04-01T00:42:00Z,28.1930,-82.7890,-1.0,20.27,2 
COMPS,ioos:station:USF.COMPS:ANC:1,2010-04-01T00:48:00Z,28.1930,-82.7890,-1.0,19.92,2 
COMPS,ioos:station:USF.COMPS:ANC:1,2010-04-01T00:54:00Z,28.1930,-82.7890,-1.0,19.64,2 
COMPS,ioos:station:USF.COMPS:ANC:1,2010-04-01T01:00:00Z,28.1930,-82.7890,-1.0,19.56,2 
COMPS,ioos:station:USF.COMPS:ANC:1,2010-04-01T01:06:00Z,28.1930,-82.7890,-1.0,19.47,2 
COMPS,ioos:station:USF.COMPS:ANC:1,2010-04-01T01:12:00Z,28.1930,-82.7890,-1.0,19.41,2 
COMPS,ioos:station:USF.COMPS:ANC:1,2010-04-01T01:18:00Z,28.1930,-82.7890,-1.0,19.51,2 
COMPS,ioos:station:USF.COMPS:ANC:1,2010-04-01T01:24:00Z,28.1930,-82.7890,-1.0,19.75,2 
COMPS,ioos:station:USF.COMPS:ANC:1,2010-04-01T01:30:00Z,28.1930,-82.7890,-1.0,20.03,2 
COMPS,ioos:station:USF.COMPS:ANC:1,2010-04-01T01:36:00Z,28.1930,-82.7890,-1.0,20.2,2 
COMPS,ioos:station:USF.COMPS:ANC:1,2010-04-01T01:42:00Z,28.1930,-82.7890,-1.0,20.28,2 
COMPS,ioos:station:USF.COMPS:ANC:1,2010-04-01T01:48:00Z,28.1930,-82.7890,-1.0,20.35,2 
COMPS,ioos:station:USF.COMPS:ANC:1,2010-04-01T01:54:00Z,28.1930,-82.7890,-1.0,20.49,2 
COMPS,ioos:station:USF.COMPS:ANC:1,2010-04-01T02:00:00Z,28.1930,-82.7890,-1.0,20.68,2 
COMPS,ioos:station:USF.COMPS:ANC:1,2010-04-01T02:06:00Z,28.1930,-82.7890,-1.0,21.41,2 
COMPS,ioos:station:USF.COMPS:ANC:1,2010-04-01T02:12:00Z,28.1930,-82.7890,-1.0,21.32,2 
COMPS,ioos:station:USF.COMPS:ANC:1,2010-04-01T02:18:00Z,28.1930,-82.7890,-1.0,21.41,2 
COMPS,ioos:station:USF.COMPS:ANC:1,2010-04-01T02:24:00Z,28.1930,-82.7890,-1.0,21.45,2 
COMPS,ioos:station:USF.COMPS:ANC:1,2010-04-01T02:30:00Z,28.1930,-82.7890,-1.0,21.53,2 
COMPS,ioos:station:USF.COMPS:ANC:1,2010-04-01T02:36:00Z,28.1930,-82.7890,-1.0,21.62,2 
COMPS,ioos:station:USF.COMPS:ANC:1,2010-04-01T02:42:00Z,28.1930,-82.7890,-1.0,21.82,2 
COMPS,ioos:station:USF.COMPS:ANC:1,2010-04-01T02:48:00Z,28.1930,-82.7890,-1.0,21.91,2 
COMPS,ioos:station:USF.COMPS:ANC:1,2010-04-01T02:54:00Z,28.1930,-82.7890,-1.0,21.9,2 
COMPS,ioos:station:USF.COMPS:ANC:1,2010-04-01T03:00:00Z,28.1930,-82.7890,-1.0,21.92,2 
COMPS,ioos:station:USF.COMPS:ANC:1,2010-04-01T03:06:00Z,28.1930,-82.7890,-1.0,21.94,2 
COMPS,ioos:station:USF.COMPS:ANC:1,2010-04-01T03:12:00Z,28.1930,-82.7890,-1.0,21.97,2 
COMPS,ioos:station:USF.COMPS:ANC:1,2010-04-01T03:18:00Z,28.1930,-82.7890,-1.0,22.0,2 
COMPS,ioos:station:USF.COMPS:ANC:1,2010-04-01T03:24:00Z,28.1930,-82.7890,-1.0,22.09,2 
COMPS,ioos:station:USF.COMPS:ANC:1,2010-04-01T03:30:00Z,28.1930,-82.7890,-1.0,22.29,2 
COMPS,ioos:station:USF.COMPS:ANC:1,2010-04-01T03:36:00Z,28.1930,-82.7890,-1.0,22.39,2 
COMPS,ioos:station:USF.COMPS:ANC:1,2010-04-01T03:42:00Z,28.1930,-82.7890,-1.0,22.44,2 
COMPS,ioos:station:USF.COMPS:ANC:1,2010-04-01T03:48:00Z,28.1930,-82.7890,-1.0,22.47,2 
COMPS,ioos:station:USF.COMPS:ANC:1,2010-04-01T03:54:00Z,28.1930,-82.7890,-1.0,22.52,2 
COMPS,ioos:station:USF.COMPS:ANC:1,2010-04-01T04:00:00Z,28.1930,-82.7890,-1.0,22.56,2 
COMPS,ioos:station:USF.COMPS:ANC:1,2010-04-01T04:06:00Z,28.1930,-82.7890,-1.0,22.58,2 
COMPS,ioos:station:USF.COMPS:ANC:1,2010-04-01T04:12:00Z,28.1930,-82.7890,-1.0,22.6,2 
COMPS,ioos:station:USF.COMPS:ANC:1,2010-04-01T04:18:00Z,28.1930,-82.7890,-1.0,22.62,2 
COMPS,ioos:station:USF.COMPS:ANC:1,2010-04-01T04:24:00Z,28.1930,-82.7890,-1.0,22.62,2 
COMPS,ioos:station:USF.COMPS:ANC:1,2010-04-01T04:30:00Z,28.1930,-82.7890,-1.0,22.62,2 
COMPS,ioos:station:USF.COMPS:ANC:1,2010-04-01T04:36:00Z,28.1930,-82.7890,-1.0,22.62,2 
COMPS,ioos:station:USF.COMPS:ANC:1,2010-04-01T04:42:00Z,28.1930,-82.7890,-1.0,22.59,2 
COMPS,ioos:station:USF.COMPS:ANC:1,2010-04-01T04:48:00Z,28.1930,-82.7890,-1.0,22.57,2 
COMPS,ioos:station:USF.COMPS:ANC:1,2010-04-01T04:54:00Z,28.1930,-82.7890,-1.0,22.54,2 
COMPS,ioos:station:USF.COMPS:ANC:1,2010-04-01T05:00:00Z,28.1930,-82.7890,-1.0,22.54,2 
COMPS,ioos:station:USF.COMPS:ANC:1,2010-04-01T05:06:00Z,28.1930,-82.7890,-1.0,22.48,2 
COMPS,ioos:station:USF.COMPS:ANC:1,2010-04-01T05:12:00Z,28.1930,-82.7890,-1.0,22.42,2 
COMPS,ioos:station:USF.COMPS:ANC:1,2010-04-01T05:18:00Z,28.1930,-82.7890,-1.0,22.36,2 
COMPS,ioos:station:USF.COMPS:ANC:1,2010-04-01T05:24:00Z,28.1930,-82.7890,-1.0,22.32,2 
COMPS,ioos:station:USF.COMPS:ANC:1,2010-04-01T05:30:00Z,28.1930,-82.7890,-1.0,22.27,2 
COMPS,ioos:station:USF.COMPS:ANC:1,2010-04-01T05:36:00Z,28.1930,-82.7890,-1.0,22.22,2 
COMPS,ioos:station:USF.COMPS:ANC:1,2010-04-01T05:42:00Z,28.1930,-82.7890,-1.0,22.14,2 
COMPS,ioos:station:USF.COMPS:ANC:1,2010-04-01T05:48:00Z,28.1930,-82.7890,-1.0,22.06,2 
COMPS,ioos:station:USF.COMPS:ANC:1,2010-04-01T05:54:00Z,28.1930,-82.7890,-1.0,21.94,2 
COMPS,ioos:station:USF.COMPS:ANC:1,2010-04-01T06:00:00Z,28.1930,-82.7890,-1.0,21.89,2 
COMPS,ioos:station:USF.COMPS:ANC:1,2010-04-01T06:06:00Z,28.1930,-82.7890,-1.0,21.79,2 
COMPS,ioos:station:USF.COMPS:ANC:1,2010-04-01T06:12:00Z,28.1930,-82.7890,-1.0,21.75,2 
COMPS,ioos:station:USF.COMPS:ANC:1,2010-04-01T06:18:00Z,28.1930,-82.7890,-1.0,21.7,2 
COMPS,ioos:station:USF.COMPS:ANC:1,2010-04-01T06:24:00Z,28.1930,-82.7890,-1.0,21.67,2 
COMPS,ioos:station:USF.COMPS:ANC:1,2010-04-01T06:30:00Z,28.1930,-82.7890,-1.0,21.64,2 
COMPS,ioos:station:USF.COMPS:ANC:1,2010-04-01T06:36:00Z,28.1930,-82.7890,-1.0,21.62,2 
COMPS,ioos:station:USF.COMPS:ANC:1,2010-04-01T06:42:00Z,28.1930,-82.7890,-1.0,21.62,2 
COMPS,ioos:station:USF.COMPS:ANC:1,2010-04-01T06:48:00Z,28.1930,-82.7890,-1.0,21.58,2 
COMPS,ioos:station:USF.COMPS:ANC:1,2010-04-01T06:54:00Z,28.1930,-82.7890,-1.0,21.58,2 
COMPS,ioos:station:USF.COMPS:ANC:1,2010-04-01T07:00:00Z,28.1930,-82.7890,-1.0,21.54,2 
COMPS,ioos:station:USF.COMPS:ANC:1,2010-04-01T07:06:00Z,28.1930,-82.7890,-1.0,21.54,2 
COMPS,ioos:station:USF.COMPS:ANC:1,2010-04-01T07:12:00Z,28.1930,-82.7890,-1.0,21.52,2 
COMPS,ioos:station:USF.COMPS:ANC:1,2010-04-01T07:18:00Z,28.1930,-82.7890,-1.0,21.51,2 
COMPS,ioos:station:USF.COMPS:ANC:1,2010-04-01T07:24:00Z,28.1930,-82.7890,-1.0,21.45,2 
COMPS,ioos:station:USF.COMPS:ANC:1,2010-04-01T07:30:00Z,28.1930,-82.7890,-1.0,21.45,2 
COMPS,ioos:station:USF.COMPS:ANC:1,2010-04-01T07:36:00Z,28.1930,-82.7890,-1.0,21.43,2 
COMPS,ioos:station:USF.COMPS:ANC:1,2010-04-01T07:42:00Z,28.1930,-82.7890,-1.0,21.44,2 
COMPS,ioos:station:USF.COMPS:ANC:1,2010-04-01T07:48:00Z,28.1930,-82.7890,-1.0,21.44,2 
COMPS,ioos:station:USF.COMPS:ANC:1,2010-04-01T07:54:00Z,28.1930,-82.7890,-1.0,21.43,2 
COMPS,ioos:station:USF.COMPS:ANC:1,2010-04-01T08:00:00Z,28.1930,-82.7890,-1.0,21.41,2 
COMPS,ioos:station:USF.COMPS:ANC:1,2010-04-01T08:06:00Z,28.1930,-82.7890,-1.0,21.4,2 
COMPS,ioos:station:USF.COMPS:ANC:1,2010-04-01T08:12:00Z,28.1930,-82.7890,-1.0,21.37,2 
COMPS,ioos:station:USF.COMPS:ANC:1,2010-04-01T08:18:00Z,28.1930,-82.7890,-1.0,21.35,2 
COMPS,ioos:station:USF.COMPS:ANC:1,2010-04-01T08:24:00Z,28.1930,-82.7890,-1.0,21.34,2 
COMPS,ioos:station:USF.COMPS:ANC:1,2010-04-01T08:30:00Z,28.1930,-82.7890,-1.0,21.32,2 
COMPS,ioos:station:USF.COMPS:ANC:1,2010-04-01T08:36:00Z,28.1930,-82.7890,-1.0,21.3,2 
COMPS,ioos:station:USF.COMPS:ANC:1,2010-04-01T08:42:00Z,28.1930,-82.7890,-1.0,21.29,2 
COMPS,ioos:station:USF.COMPS:ANC:1,2010-04-01T08:48:00Z,28.1930,-82.7890,-1.0,21.27,2 
COMPS,ioos:station:USF.COMPS:ANC:1,2010-04-01T08:54:00Z,28.1930,-82.7890,-1.0,21.27,2 
COMPS,ioos:station:USF.COMPS:ANC:1,2010-04-01T09:00:00Z,28.1930,-82.7890,-1.0,21.27,2 
COMPS,ioos:station:USF.COMPS:ANC:1,2010-04-01T09:06:00Z,28.1930,-82.7890,-1.0,21.27,2 
COMPS,ioos:station:USF.COMPS:ANC:1,2010-04-01T09:12:00Z,28.1930,-82.7890,-1.0,21.27,2 
COMPS,ioos:station:USF.COMPS:ANC:1,2010-04-01T09:18:00Z,28.1930,-82.7890,-1.0,21.26,2 
COMPS,ioos:station:USF.COMPS:ANC:1,2010-04-01T09:24:00Z,28.1930,-82.7890,-1.0,21.25,2 
COMPS,ioos:station:USF.COMPS:ANC:1,2010-04-01T09:30:00Z,28.1930,-82.7890,-1.0,21.23,2 
COMPS,ioos:station:USF.COMPS:ANC:1,2010-04-01T09:36:00Z,28.1930,-82.7890,-1.0,21.21,2 
COMPS,ioos:station:USF.COMPS:ANC:1,2010-04-01T09:42:00Z,28.1930,-82.7890,-1.0,21.2,2 
COMPS,ioos:station:USF.COMPS:ANC:1,2010-04-01T09:48:00Z,28.1930,-82.7890,-1.0,21.17,2 
COMPS,ioos:station:USF.COMPS:ANC:1,2010-04-01T09:54:00Z,28.1930,-82.7890,-1.0,21.16,2 
COMPS,ioos:station:USF.COMPS:ANC:1,2010-04-01T10:00:00Z,28.1930,-82.7890,-1.0,21.13,2 
COMPS,ioos:station:USF.COMPS:ANC:1,2010-04-01T10:06:00Z,28.1930,-82.7890,-1.0,21.13,2 
COMPS,ioos:station:USF.COMPS:ANC:1,2010-04-01T10:12:00Z,28.1930,-82.7890,-1.0,21.1,2 
COMPS,ioos:station:USF.COMPS:ANC:1,2010-04-01T10:18:00Z,28.1930,-82.7890,-1.0,21.08,2 
COMPS,ioos:station:USF.COMPS:ANC:1,2010-04-01T10:24:00Z,28.1930,-82.7890,-1.0,21.06,2 
COMPS,ioos:station:USF.COMPS:ANC:1,2010-04-01T10:30:00Z,28.1930,-82.7890,-1.0,21.04,2 
COMPS,ioos:station:USF.COMPS:ANC:1,2010-04-01T10:36:00Z,28.1930,-82.7890,-1.0,21.02,2 
COMPS,ioos:station:USF.COMPS:ANC:1,2010-04-01T10:42:00Z,28.1930,-82.7890,-1.0,21.01,2 
COMPS,ioos:station:USF.COMPS:ANC:1,2010-04-01T10:48:00Z,28.1930,-82.7890,-1.0,20.98,2 
COMPS,ioos:station:USF.COMPS:ANC:1,2010-04-01T10:54:00Z,28.1930,-82.7890,-1.0,20.94,2 
COMPS,ioos:station:USF.COMPS:ANC:1,2010-04-01T11:00:00Z,28.1930,-82.7890,-1.0,20.92,2 
COMPS,ioos:station:USF.COMPS:ANC:1,2010-04-01T11:06:00Z,28.1930,-82.7890,-1.0,20.91,2 
COMPS,ioos:station:USF.COMPS:ANC:1,2010-04-01T11:12:00Z,28.1930,-82.7890,-1.0,20.9,2 
COMPS,ioos:station:USF.COMPS:ANC:1,2010-04-01T11:18:00Z,28.1930,-82.7890,-1.0,20.9,2 
COMPS,ioos:station:USF.COMPS:ANC:1,2010-04-01T11:24:00Z,28.1930,-82.7890,-1.0,20.88,2 
COMPS,ioos:station:USF.COMPS:ANC:1,2010-04-01T11:30:00Z,28.1930,-82.7890,-1.0,20.89,2 
COMPS,ioos:station:USF.COMPS:ANC:1,2010-04-01T11:36:00Z,28.1930,-82.7890,-1.0,20.88,2 
COMPS,ioos:station:USF.COMPS:ANC:1,2010-04-01T11:42:00Z,28.1930,-82.7890,-1.0,20.89,2 
COMPS,ioos:station:USF.COMPS:ANC:1,2010-04-01T11:48:00Z,28.1930,-82.7890,-1.0,20.92,2 
COMPS,ioos:station:USF.COMPS:ANC:1,2010-04-01T11:54:00Z,28.1930,-82.7890,-1.0,20.96,2 
COMPS,ioos:station:USF.COMPS:ANC:1,2010-04-01T12:00:00Z,28.1930,-82.7890,-1.0,21.04,2 
COMPS,ioos:station:USF.COMPS:ANC:1,2010-04-01T12:06:00Z,28.1930,-82.7890,-1.0,21.09,2 
COMPS,ioos:station:USF.COMPS:ANC:1,2010-04-01T12:12:00Z,28.1930,-82.7890,-1.0,21.12,2 
COMPS,ioos:station:USF.COMPS:ANC:1,2010-04-01T12:18:00Z,28.1930,-82.7890,-1.0,21.16,2 
COMPS,ioos:station:USF.COMPS:ANC:1,2010-04-01T12:24:00Z,28.1930,-82.7890,-1.0,21.23,2 
COMPS,ioos:station:USF.COMPS:ANC:1,2010-04-01T12:30:00Z,28.1930,-82.7890,-1.0,21.27,2 
COMPS,ioos:station:USF.COMPS:ANC:1,2010-04-01T12:36:00Z,28.1930,-82.7890,-1.0,21.27,2 
COMPS,ioos:station:USF.COMPS:ANC:1,2010-04-01T12:42:00Z,28.1930,-82.7890,-1.0,21.28,2 
COMPS,ioos:station:USF.COMPS:ANC:1,2010-04-01T12:48:00Z,28.1930,-82.7890,-1.0,21.31,2 
COMPS,ioos:station:USF.COMPS:ANC:1,2010-04-01T12:54:00Z,28.1930,-82.7890,-1.0,21.33,2 
COMPS,ioos:station:USF.COMPS:ANC:1,2010-04-01T13:00:00Z,28.1930,-82.7890,-1.0,21.36,2 
COMPS,ioos:station:USF.COMPS:ANC:1,2010-04-01T13:06:00Z,28.1930,-82.7890,-1.0,21.37,2 
COMPS,ioos:station:USF.COMPS:ANC:1,2010-04-01T13:12:00Z,28.1930,-82.7890,-1.0,21.37,2 
COMPS,ioos:station:USF.COMPS:ANC:1,2010-04-01T13:18:00Z,28.1930,-82.7890,-1.0,21.37,2 
COMPS,ioos:station:USF.COMPS:ANC:1,2010-04-01T13:24:00Z,28.1930,-82.7890,-1.0,21.36,2 
COMPS,ioos:station:USF.COMPS:ANC:1,2010-04-01T13:30:00Z,28.1930,-82.7890,-1.0,21.34,2 
COMPS,ioos:station:USF.COMPS:ANC:1,2010-04-01T13:36:00Z,28.1930,-82.7890,-1.0,21.33,2 
COMPS,ioos:station:USF.COMPS:ANC:1,2010-04-01T13:42:00Z,28.1930,-82.7890,-1.0,21.34,2 
COMPS,ioos:station:USF.COMPS:ANC:1,2010-04-01T13:48:00Z,28.1930,-82.7890,-1.0,21.37,2 
COMPS,ioos:station:USF.COMPS:ANC:1,2010-04-01T13:54:00Z,28.1930,-82.7890,-1.0,21.4,2 
COMPS,ioos:station:USF.COMPS:ANC:1,2010-04-01T14:00:00Z,28.1930,-82.7890,-1.0,21.42,2 
COMPS,ioos:station:USF.COMPS:ANC:1,2010-04-01T14:06:00Z,28.1930,-82.7890,-1.0,21.44,2 
COMPS,ioos:station:USF.COMPS:ANC:1,2010-04-01T14:12:00Z,28.1930,-82.7890,-1.0,21.45,2 
COMPS,ioos:station:USF.COMPS:ANC:1,2010-04-01T14:18:00Z,28.1930,-82.7890,-1.0,21.44,2 
COMPS,ioos:station:USF.COMPS:ANC:1,2010-04-01T14:24:00Z,28.1930,-82.7890,-1.0,21.44,2 
COMPS,ioos:station:USF.COMPS:ANC:1,2010-04-01T14:30:00Z,28.1930,-82.7890,-1.0,21.44,2 
COMPS,ioos:station:USF.COMPS:ANC:1,2010-04-01T14:36:00Z,28.1930,-82.7890,-1.0,21.44,2 
COMPS,ioos:station:USF.COMPS:ANC:1,2010-04-01T14:42:00Z,28.1930,-82.7890,-1.0,21.42,2 
COMPS,ioos:station:USF.COMPS:ANC:1,2010-04-01T14:48:00Z,28.1930,-82.7890,-1.0,21.43,2 
COMPS,ioos:station:USF.COMPS:ANC:1,2010-04-01T14:54:00Z,28.1930,-82.7890,-1.0,21.43,2 
COMPS,ioos:station:USF.COMPS:ANC:1,2010-04-01T15:00:00Z,28.1930,-82.7890,-1.0,21.44,2 
COMPS,ioos:station:USF.COMPS:ANC:1,2010-04-01T15:06:00Z,28.1930,-82.7890,-1.0,21.44,2 
COMPS,ioos:station:USF.COMPS:ANC:1,2010-04-01T15:12:00Z,28.1930,-82.7890,-1.0,21.44,2 
COMPS,ioos:station:USF.COMPS:ANC:1,2010-04-01T15:18:00Z,28.1930,-82.7890,-1.0,21.45,2 
COMPS,ioos:station:USF.COMPS:ANC:1,2010-04-01T15:24:00Z,28.1930,-82.7890,-1.0,21.45,2 
COMPS,ioos:station:USF.COMPS:ANC:1,2010-04-01T15:30:00Z,28.1930,-82.7890,-1.0,21.43,2 
COMPS,ioos:station:USF.COMPS:ANC:1,2010-04-01T15:36:00Z,28.1930,-82.7890,-1.0,21.41,2 
COMPS,ioos:station:USF.COMPS:ANC:1,2010-04-01T15:42:00Z,28.1930,-82.7890,-1.0,21.38,2 
COMPS,ioos:station:USF.COMPS:ANC:1,2010-04-01T15:48:00Z,28.1930,-82.7890,-1.0,21.34,2 
COMPS,ioos:station:USF.COMPS:ANC:1,2010-04-01T15:54:00Z,28.1930,-82.7890,-1.0,21.29,2 
COMPS,ioos:station:USF.COMPS:ANC:1,2010-04-01T16:00:00Z,28.1930,-82.7890,-1.0,21.25,2 
COMPS,ioos:station:USF.COMPS:ANC:1,2010-04-01T16:06:00Z,28.1930,-82.7890,-1.0,21.19,2 
COMPS,ioos:station:USF.COMPS:ANC:1,2010-04-01T16:12:00Z,28.1930,-82.7890,-1.0,21.17,2 
COMPS,ioos:station:USF.COMPS:ANC:1,2010-04-01T16:18:00Z,28.1930,-82.7890,-1.0,21.17,2 
COMPS,ioos:station:USF.COMPS:ANC:1,2010-04-01T16:24:00Z,28.1930,-82.7890,-1.0,21.15,2 
COMPS,ioos:station:USF.COMPS:ANC:1,2010-04-01T16:30:00Z,28.1930,-82.7890,-1.0,21.16,2 
COMPS,ioos:station:USF.COMPS:ANC:1,2010-04-01T16:36:00Z,28.1930,-82.7890,-1.0,21.17,2 
COMPS,ioos:station:USF.COMPS:ANC:1,2010-04-01T16:42:00Z,28.1930,-82.7890,-1.0,21.2,2 
COMPS,ioos:station:USF.COMPS:ANC:1,2010-04-01T16:48:00Z,28.1930,-82.7890,-1.0,21.21,2 
COMPS,ioos:station:USF.COMPS:ANC:1,2010-04-01T16:54:00Z,28.1930,-82.7890,-1.0,21.24,2 
COMPS,ioos:station:USF.COMPS:ANC:1,2010-04-01T17:00:00Z,28.1930,-82.7890,-1.0,21.26,2 
COMPS,ioos:station:USF.COMPS:ANC:1,2010-04-01T17:06:00Z,28.1930,-82.7890,-1.0,21.34,2 
COMPS,ioos:station:USF.COMPS:ANC:1,2010-04-01T17:12:00Z,28.1930,-82.7890,-1.0,21.38,2 
COMPS,ioos:station:USF.COMPS:ANC:1,2010-04-01T17:18:00Z,28.1930,-82.7890,-1.0,21.42,2 
COMPS,ioos:station:USF.COMPS:ANC:1,2010-04-01T17:24:00Z,28.1930,-82.7890,-1.0,21.38,2 
COMPS,ioos:station:USF.COMPS:ANC:1,2010-04-01T17:30:00Z,28.1930,-82.7890,-1.0,21.38,2 
COMPS,ioos:station:USF.COMPS:ANC:1,2010-04-01T17:36:00Z,28.1930,-82.7890,-1.0,21.38,2 
COMPS,ioos:station:USF.COMPS:ANC:1,2010-04-01T17:42:00Z,28.1930,-82.7890,-1.0,21.43,2 
COMPS,ioos:station:USF.COMPS:ANC:1,2010-04-01T17:48:00Z,28.1930,-82.7890,-1.0,21.44,2 
COMPS,ioos:station:USF.COMPS:ANC:1,2010-04-01T17:54:00Z,28.1930,-82.7890,-1.0,21.47,2 
COMPS,ioos:station:USF.COMPS:ANC:1,2010-04-01T18:00:00Z,28.1930,-82.7890,-1.0,21.52,2 
COMPS,ioos:station:USF.COMPS:ANC:1,2010-04-01T18:06:00Z,28.1930,-82.7890,-1.0,21.59,2 
COMPS,ioos:station:USF.COMPS:ANC:1,2010-04-01T18:12:00Z,28.1930,-82.7890,-1.0,21.6,2 
COMPS,ioos:station:USF.COMPS:ANC:1,2010-04-01T18:18:00Z,28.1930,-82.7890,-1.0,21.65,2 
COMPS,ioos:station:USF.COMPS:ANC:1,2010-04-01T18:24:00Z,28.1930,-82.7890,-1.0,21.67,2 
COMPS,ioos:station:USF.COMPS:ANC:1,2010-04-01T18:30:00Z,28.1930,-82.7890,-1.0,21.73,2 
COMPS,ioos:station:USF.COMPS:ANC:1,2010-04-01T18:36:00Z,28.1930,-82.7890,-1.0,21.77,2 
COMPS,ioos:station:USF.COMPS:ANC:1,2010-04-01T18:42:00Z,28.1930,-82.7890,-1.0,21.83,2 
COMPS,ioos:station:USF.COMPS:ANC:1,2010-04-01T18:48:00Z,28.1930,-82.7890,-1.0,21.89,2 
COMPS,ioos:station:USF.COMPS:ANC:1,2010-04-01T18:54:00Z,28.1930,-82.7890,-1.0,21.93,2 
COMPS,ioos:station:USF.COMPS:ANC:1,2010-04-01T19:00:00Z,28.1930,-82.7890,-1.0,21.96,2 
COMPS,ioos:station:USF.COMPS:ANC:1,2010-04-01T19:06:00Z,28.1930,-82.7890,-1.0,22.01,2 
COMPS,ioos:station:USF.COMPS:ANC:1,2010-04-01T19:12:00Z,28.1930,-82.7890,-1.0,22.06,2 
COMPS,ioos:station:USF.COMPS:ANC:1,2010-04-01T19:18:00Z,28.1930,-82.7890,-1.0,22.12,2 
COMPS,ioos:station:USF.COMPS:ANC:1,2010-04-01T19:24:00Z,28.1930,-82.7890,-1.0,22.17,2 
COMPS,ioos:station:USF.COMPS:ANC:1,2010-04-01T19:30:00Z,28.1930,-82.7890,-1.0,22.22,2 
COMPS,ioos:station:USF.COMPS:ANC:1,2010-04-01T19:36:00Z,28.1930,-82.7890,-1.0,22.29,2 
COMPS,ioos:station:USF.COMPS:ANC:1,2010-04-01T19:42:00Z,28.1930,-82.7890,-1.0,22.34,2 
COMPS,ioos:station:USF.COMPS:ANC:1,2010-04-01T19:48:00Z,28.1930,-82.7890,-1.0,22.39,2 
COMPS,ioos:station:USF.COMPS:ANC:1,2010-04-01T19:54:00Z,28.1930,-82.7890,-1.0,22.42,2 
COMPS,ioos:station:USF.COMPS:ANC:1,2010-04-01T20:00:00Z,28.1930,-82.7890,-1.0,22.46,2 
COMPS,ioos:station:USF.COMPS:ANC:1,2010-04-01T20:06:00Z,28.1930,-82.7890,-1.0,22.49,2 
COMPS,ioos:station:USF.COMPS:ANC:1,2010-04-01T20:12:00Z,28.1930,-82.7890,-1.0,22.54,2 
COMPS,ioos:station:USF.COMPS:ANC:1,2010-04-01T20:18:00Z,28.1930,-82.7890,-1.0,22.57,2 
COMPS,ioos:station:USF.COMPS:ANC:1,2010-04-01T20:24:00Z,28.1930,-82.7890,-1.0,22.61,2 
COMPS,ioos:station:USF.COMPS:ANC:1,2010-04-01T20:30:00Z,28.1930,-82.7890,-1.0,22.64,2 
COMPS,ioos:station:USF.COMPS:ANC:1,2010-04-01T20:36:00Z,28.1930,-82.7890,-1.0,22.67,2 
COMPS,ioos:station:USF.COMPS:ANC:1,2010-04-01T20:42:00Z,28.1930,-82.7890,-1.0,22.69,2 
COMPS,ioos:station:USF.COMPS:ANC:1,2010-04-01T20:48:00Z,28.1930,-82.7890,-1.0,22.74,2 
COMPS,ioos:station:USF.COMPS:ANC:1,2010-04-01T20:54:00Z,28.1930,-82.7890,-1.0,22.8,2 
COMPS,ioos:station:USF.COMPS:ANC:1,2010-04-01T21:00:00Z,28.1930,-82.7890,-1.0,22.9,2 
COMPS,ioos:station:USF.COMPS:ANC:1,2010-04-01T21:06:00Z,28.1930,-82.7890,-1.0,22.95,2 
COMPS,ioos:station:USF.COMPS:ANC:1,2010-04-01T21:12:00Z,28.1930,-82.7890,-1.0,22.96,2 
COMPS,ioos:station:USF.COMPS:ANC:1,2010-04-01T21:18:00Z,28.1930,-82.7890,-1.0,22.96,2 
COMPS,ioos:station:USF.COMPS:ANC:1,2010-04-01T21:24:00Z,28.1930,-82.7890,-1.0,22.98,2 
COMPS,ioos:station:USF.COMPS:ANC:1,2010-04-01T21:30:00Z,28.1930,-82.7890,-1.0,23.02,2 
COMPS,ioos:station:USF.COMPS:ANC:1,2010-04-01T21:36:00Z,28.1930,-82.7890,-1.0,23.08,2 
COMPS,ioos:station:USF.COMPS:ANC:1,2010-04-01T21:42:00Z,28.1930,-82.7890,-1.0,23.16,2 
COMPS,ioos:station:USF.COMPS:ANC:1,2010-04-01T21:48:00Z,28.1930,-82.7890,-1.0,23.23,2 
COMPS,ioos:station:USF.COMPS:ANC:1,2010-04-01T21:54:00Z,28.1930,-82.7890,-1.0,23.28,2 
COMPS,ioos:station:USF.COMPS:ANC:1,2010-04-01T22:00:00Z,28.1930,-82.7890,-1.0,23.38,2 
COMPS,ioos:station:USF.COMPS:ANC:1,2010-04-01T22:06:00Z,28.1930,-82.7890,-1.0,23.36,2 
COMPS,ioos:station:USF.COMPS:ANC:1,2010-04-01T22:12:00Z,28.1930,-82.7890,-1.0,23.37,2 
COMPS,ioos:station:USF.COMPS:ANC:1,2010-04-01T22:18:00Z,28.1930,-82.7890,-1.0,23.36,2 
COMPS,ioos:station:USF.COMPS:ANC:1,2010-04-01T22:24:00Z,28.1930,-82.7890,-1.0,23.36,2 
COMPS,ioos:station:USF.COMPS:ANC:1,2010-04-01T22:30:00Z,28.1930,-82.7890,-1.0,23.39,2 
COMPS,ioos:station:USF.COMPS:ANC:1,2010-04-01T22:36:00Z,28.1930,-82.7890,-1.0,23.39,2 
COMPS,ioos:station:USF.COMPS:ANC:1,2010-04-01T22:42:00Z,28.1930,-82.7890,-1.0,23.38,2 
COMPS,ioos:station:USF.COMPS:ANC:1,2010-04-01T22:48:00Z,28.1930,-82.7890,-1.0,23.37,2 
COMPS,ioos:station:USF.COMPS:ANC:1,2010-04-01T22:54:00Z,28.1930,-82.7890,-1.0,23.33,2 
COMPS,ioos:station:USF.COMPS:ANC:1,2010-04-01T23:00:00Z,28.1930,-82.7890,-1.0,23.28,2 
COMPS,ioos:station:USF.COMPS:ANC:1,2010-04-01T23:06:00Z,28.1930,-82.7890,-1.0,23.22,2 
COMPS,ioos:station:USF.COMPS:ANC:1,2010-04-01T23:12:00Z,28.1930,-82.7890,-1.0,23.19,2 
COMPS,ioos:station:USF.COMPS:ANC:1,2010-04-01T23:18:00Z,28.1930,-82.7890,-1.0,23.15,2 
COMPS,ioos:station:USF.COMPS:ANC:1,2010-04-01T23:24:00Z,28.1930,-82.7890,-1.0,23.15,2 
COMPS,ioos:station:USF.COMPS:ANC:1,2010-04-01T23:30:00Z,28.1930,-82.7890,-1.0,23.08,2 
COMPS,ioos:station:USF.COMPS:ANC:1,2010-04-01T23:36:00Z,28.1930,-82.7890,-1.0,23.02,2 
COMPS,ioos:station:USF.COMPS:ANC:1,2010-04-01T23:42:00Z,28.1930,-82.7890,-1.0,22.95,2 
COMPS,ioos:station:USF.COMPS:ANC:1,2010-04-01T23:48:00Z,28.1930,-82.7890,-1.0,22.91,2 
COMPS,ioos:station:USF.COMPS:ANC:1,2010-04-01T23:54:00Z,28.1930,-82.7890,-1.0,22.83,2 
COMPS,ioos:station:USF.COMPS:ANC:1,2010-04-02T00:00:00Z,28.1930,-82.7890,-1.0,22.76,2 
COMPS,ioos:station:USF.COMPS:ANC:1,2010-04-02T00:06:00Z,28.1930,-82.7890,-1.0,22.73,2 
COMPS,ioos:station:USF.COMPS:ANC:1,2010-04-02T00:12:00Z,28.1930,-82.7890,-1.0,22.65,2 
COMPS,ioos:station:USF.COMPS:ANC:1,2010-04-02T00:18:00Z,28.1930,-82.7890,-1.0,22.5,2 
COMPS,ioos:station:USF.COMPS:ANC:1,2010-04-02T00:24:00Z,28.1930,-82.7890,-1.0,22.39,2 
COMPS,ioos:station:USF.COMPS:ANC:1,2010-04-02T00:30:00Z,28.1930,-82.7890,-1.0,22.3,2 
COMPS,ioos:station:USF.COMPS:ANC:1,2010-04-02T00:36:00Z,28.1930,-82.7890,-1.0,22.2,2 
COMPS,ioos:station:USF.COMPS:ANC:1,2010-04-02T00:42:00Z,28.1930,-82.7890,-1.0,22.13,2 
COMPS,ioos:station:USF.COMPS:ANC:1,2010-04-02T00:48:00Z,28.1930,-82.7890,-1.0,22.12,2 
COMPS,ioos:station:USF.COMPS:ANC:1,2010-04-02T00:54:00Z,28.1930,-82.7890,-1.0,22.12,2 
COMPS,ioos:station:USF.COMPS:ANC:1,2010-04-02T01:00:00Z,28.1930,-82.7890,-1.0,22.07,2 
COMPS,ioos:station:USF.COMPS:ANC:1,2010-04-02T01:06:00Z,28.1930,-82.7890,-1.0,22.0,2 
COMPS,ioos:station:USF.COMPS:ANC:1,2010-04-02T01:12:00Z,28.1930,-82.7890,-1.0,21.95,2 
COMPS,ioos:station:USF.COMPS:ANC:1,2010-04-02T01:18:00Z,28.1930,-82.7890,-1.0,21.91,2 
COMPS,ioos:station:USF.COMPS:ANC:1,2010-04-02T01:24:00Z,28.1930,-82.7890,-1.0,21.81,2 
COMPS,ioos:station:USF.COMPS:ANC:1,2010-04-02T01:30:00Z,28.1930,-82.7890,-1.0,21.73,2 
COMPS,ioos:station:USF.COMPS:ANC:1,2010-04-02T01:36:00Z,28.1930,-82.7890,-1.0,21.68,2 
COMPS,ioos:station:USF.COMPS:ANC:1,2010-04-02T01:42:00Z,28.1930,-82.7890,-1.0,21.66,2 
COMPS,ioos:station:USF.COMPS:ANC:1,2010-04-02T01:48:00Z,28.1930,-82.7890,-1.0,21.62,2 
COMPS,ioos:station:USF.COMPS:ANC:1,2010-04-02T01:54:00Z,28.1930,-82.7890,-1.0,21.65,2 
COMPS,ioos:station:USF.COMPS:ANC:1,2010-04-02T02:00:00Z,28.1930,-82.7890,-1.0,21.62,2 
COMPS,ioos:station:USF.COMPS:ANC:1,2010-04-02T02:06:00Z,28.1930,-82.7890,-1.0,21.61,2 
COMPS,ioos:station:USF.COMPS:ANC:1,2010-04-02T02:12:00Z,28.1930,-82.7890,-1.0,21.59,2 
COMPS,ioos:station:USF.COMPS:ANC:1,2010-04-02T02:18:00Z,28.1930,-82.7890,-1.0,21.66,2 
COMPS,ioos:station:USF.COMPS:ANC:1,2010-04-02T02:24:00Z,28.1930,-82.7890,-1.0,21.8,2 
COMPS,ioos:station:USF.COMPS:ANC:1,2010-04-02T02:30:00Z,28.1930,-82.7890,-1.0,21.85,2 
COMPS,ioos:station:USF.COMPS:ANC:1,2010-04-02T02:36:00Z,28.1930,-82.7890,-1.0,22.22,2 
COMPS,ioos:station:USF.COMPS:ANC:1,2010-04-02T02:42:00Z,28.1930,-82.7890,-1.0,22.34,2 
COMPS,ioos:station:USF.COMPS:ANC:1,2010-04-02T02:48:00Z,28.1930,-82.7890,-1.0,22.46,2 
COMPS,ioos:station:USF.COMPS:ANC:1,2010-04-02T02:54:00Z,28.1930,-82.7890,-1.0,22.59,2 
COMPS,ioos:station:USF.COMPS:ANC:1,2010-04-02T03:00:00Z,28.1930,-82.7890,-1.0,22.65,2 
COMPS,ioos:station:USF.COMPS:ANC:1,2010-04-02T03:06:00Z,28.1930,-82.7890,-1.0,22.67,2 
COMPS,ioos:station:USF.COMPS:ANC:1,2010-04-02T03:12:00Z,28.1930,-82.7890,-1.0,22.71,2 
COMPS,ioos:station:USF.COMPS:ANC:1,2010-04-02T03:18:00Z,28.1930,-82.7890,-1.0,22.77,2 
COMPS,ioos:station:USF.COMPS:ANC:1,2010-04-02T03:24:00Z,28.1930,-82.7890,-1.0,22.76,2 